APHID43 KBGR-KPOB

Flight info

Callsign APHID43
Flight time 2h 17m
Altitude 38000
Route KAYCC KYLOH NELIE Q75 GVE RDU ASHEL
Aircraft B737/M-SDFGHIM1RWXYZ/LB1

Departure

Time 2026-05-07 03:39
Airport Bangor International Airport (KBGR)

Arrival

Time 2026-05-07 05:56
Airport Pope Field (KPOB)
Time Latitude Longitude Altitude Speed Heading
2026-05-07 03:08 44.81017 -68.82336 177 ft 0 kts 134°
2026-05-07 03:33 44.81016 -68.82334 177 ft 1 kts 134°
2026-05-07 03:33 44.81015 -68.82333 177 ft 1 kts 134°
2026-05-07 03:33 44.81015 -68.82332 177 ft 0 kts 134°
2026-05-07 03:33 44.81003 -68.82315 176 ft 5 kts 134°
2026-05-07 03:34 44.80961 -68.82282 175 ft 9 kts 182°
2026-05-07 03:34 44.80908 -68.82339 175 ft 10 kts 224°
2026-05-07 03:34 44.80892 -68.82423 176 ft 10 kts 304°
2026-05-07 03:34 44.80941 -68.82495 179 ft 10 kts 314°
2026-05-07 03:35 44.80997 -68.82577 182 ft 13 kts 314°
2026-05-07 03:35 44.81064 -68.82673 189 ft 15 kts 314°
2026-05-07 03:35 44.81142 -68.82785 198 ft 17 kts 314°
2026-05-07 03:35 44.81227 -68.82908 193 ft 19 kts 314°
2026-05-07 03:36 44.81324 -68.83048 201 ft 21 kts 314°
2026-05-07 03:36 44.81431 -68.83201 207 ft 23 kts 314°
2026-05-07 03:36 44.81545 -68.83369 206 ft 25 kts 314°
2026-05-07 03:36 44.81668 -68.83548 214 ft 26 kts 314°
2026-05-07 03:37 44.81789 -68.83721 214 ft 24 kts 314°
2026-05-07 03:37 44.81901 -68.83883 214 ft 23 kts 314°
2026-05-07 03:37 44.82010 -68.84065 215 ft 23 kts 278°
2026-05-07 03:37 44.81916 -68.84253 204 ft 25 kts 223°
2026-05-07 03:38 44.81776 -68.84304 206 ft 19 kts 138°
2026-05-07 03:38 44.81762 -68.84283 199 ft 0 kts 133°
2026-05-07 03:38 44.81750 -68.84266 204 ft 19 kts 134°
2026-05-07 03:38 44.81456 -68.83840 195 ft 100 kts 134°
2026-05-07 03:39 44.80823 -68.82898 220 ft 160 kts 135°
2026-05-07 03:39 44.80065 -68.81702 1020 ft 157 kts 134°
2026-05-07 03:39 44.79324 -68.80500 1776 ft 172 kts 136°
2026-05-07 03:39 44.78518 -68.79149 2283 ft 200 kts 134°
2026-05-07 03:40 44.77560 -68.77558 2871 ft 216 kts 132°
2026-05-07 03:40 44.76620 -68.75954 3844 ft 216 kts 134°
2026-05-07 03:40 44.75477 -68.74408 4198 ft 241 kts 148°
2026-05-07 03:40 44.74021 -68.73170 4900 ft 246 kts 163°
2026-05-07 03:41 44.72917 -68.72942 5447 ft 241 kts 189°
2026-05-07 03:41 44.71427 -68.73843 6375 ft 233 kts 221°
2026-05-07 03:41 44.70290 -68.75469 7208 ft 234 kts 231°
2026-05-07 03:41 44.69295 -68.77284 8039 ft 235 kts 233°
2026-05-07 03:42 44.68318 -68.79155 8857 ft 239 kts 234°
2026-05-07 03:42 44.67299 -68.81114 9463 ft 257 kts 233°
2026-05-07 03:42 44.66238 -68.83145 10263 ft 264 kts 233°
2026-05-07 03:42 44.65094 -68.85320 10629 ft 290 kts 233°
2026-05-07 03:43 44.63830 -68.87710 10860 ft 317 kts 233°
2026-05-07 03:43 44.62466 -68.90279 11271 ft 335 kts 233°
2026-05-07 03:43 44.61056 -68.92923 12062 ft 340 kts 233°
2026-05-07 03:43 44.59633 -68.95585 12994 ft 342 kts 232°
2026-05-07 03:44 44.58221 -68.98218 13995 ft 341 kts 233°
2026-05-07 03:44 44.56790 -69.00883 14936 ft 342 kts 233°
2026-05-07 03:44 44.55347 -69.03567 15797 ft 346 kts 233°
2026-05-07 03:44 44.53887 -69.06276 16641 ft 350 kts 233°
2026-05-07 03:45 44.52413 -69.09009 17497 ft 353 kts 233°
2026-05-07 03:45 44.50920 -69.11775 18285 ft 357 kts 233°
2026-05-07 03:45 44.49415 -69.14559 18993 ft 360 kts 233°
2026-05-07 03:45 44.47912 -69.17337 19694 ft 364 kts 233°
2026-05-07 03:46 44.46376 -69.20173 20407 ft 367 kts 233°
2026-05-07 03:46 44.44823 -69.23037 21109 ft 370 kts 233°
2026-05-07 03:46 44.43257 -69.25922 21824 ft 372 kts 233°
2026-05-07 03:46 44.41680 -69.28825 22497 ft 375 kts 233°
2026-05-07 03:47 44.40104 -69.31723 23093 ft 380 kts 232°
2026-05-07 03:47 44.38496 -69.34678 23631 ft 384 kts 233°
2026-05-07 03:47 44.36872 -69.37658 24169 ft 386 kts 233°
2026-05-07 03:47 44.35229 -69.40670 24697 ft 390 kts 233°
2026-05-07 03:48 44.33576 -69.43698 25194 ft 394 kts 233°
2026-05-07 03:48 44.31907 -69.46750 25720 ft 396 kts 233°
2026-05-07 03:48 44.30248 -69.49783 26231 ft 398 kts 233°
2026-05-07 03:48 44.28565 -69.52855 26803 ft 397 kts 234°
2026-05-07 03:49 44.26893 -69.55904 27479 ft 395 kts 234°
2026-05-07 03:49 44.25221 -69.58951 28009 ft 396 kts 234°
2026-05-07 03:49 44.23541 -69.62008 28599 ft 395 kts 234°
2026-05-07 03:49 44.21874 -69.65036 29303 ft 391 kts 235°
2026-05-07 03:50 44.20245 -69.67992 29994 ft 387 kts 235°
2026-05-07 03:50 44.18611 -69.70956 30572 ft 383 kts 235°
2026-05-07 03:50 44.16989 -69.73894 31067 ft 382 kts 236°
2026-05-07 03:50 44.15367 -69.76833 31532 ft 381 kts 236°
2026-05-07 03:51 44.13764 -69.79730 32214 ft 373 kts 237°
2026-05-07 03:51 44.12190 -69.82567 32934 ft 366 kts 237°
2026-05-07 03:51 44.10632 -69.85380 33286 ft 368 kts 237°
2026-05-07 03:51 44.09064 -69.88212 33564 ft 371 kts 238°
2026-05-07 03:52 44.07508 -69.91020 33944 ft 370 kts 238°
2026-05-07 03:52 44.05941 -69.93840 34319 ft 368 kts 237°
2026-05-07 03:52 44.04369 -69.96668 34584 ft 369 kts 237°
2026-05-07 03:52 44.02789 -69.99507 34834 ft 371 kts 237°
2026-05-07 03:53 44.01201 -70.02358 35128 ft 371 kts 237°
2026-05-07 03:53 43.99639 -70.05158 35420 ft 370 kts 237°
2026-05-07 03:53 43.98064 -70.07974 35907 ft 366 kts 237°
2026-05-07 03:53 43.96502 -70.10769 36164 ft 367 kts 237°
2026-05-07 03:54 43.94923 -70.13595 36325 ft 370 kts 237°
2026-05-07 03:54 43.93365 -70.16378 36595 ft 370 kts 237°
2026-05-07 03:54 43.91782 -70.19203 36885 ft 370 kts 237°
2026-05-07 03:54 43.90201 -70.22021 37130 ft 371 kts 237°
2026-05-07 03:55 43.88613 -70.24850 37349 ft 371 kts 237°
2026-05-07 03:55 43.87023 -70.27679 37595 ft 372 kts 237°
2026-05-07 03:55 43.85431 -70.30508 37761 ft 374 kts 237°
2026-05-07 03:56 43.82223 -70.36202 37756 ft 374 kts 237°
2026-05-07 03:56 43.79012 -70.41892 37771 ft 380 kts 237°
2026-05-07 03:57 43.75732 -70.47690 37767 ft 382 kts 237°
2026-05-07 03:57 43.72462 -70.53459 37762 ft 383 kts 237°
2026-05-07 03:58 43.69170 -70.59254 37746 ft 382 kts 237°
2026-05-07 03:58 43.65888 -70.65020 37760 ft 380 kts 237°
2026-05-07 03:59 43.62637 -70.70723 37796 ft 379 kts 237°
2026-05-07 03:59 43.59369 -70.76449 37786 ft 379 kts 237°
2026-05-07 04:00 43.56119 -70.82118 37767 ft 379 kts 236°
2026-05-07 04:00 43.52232 -70.87139 37761 ft 388 kts 225°
2026-05-07 04:01 43.47557 -70.91048 37777 ft 394 kts 219°
2026-05-07 04:01 43.42791 -70.94730 37776 ft 394 kts 219°
2026-05-07 04:02 43.38010 -70.98438 37735 ft 394 kts 220°
2026-05-07 04:02 43.33254 -71.02141 37766 ft 392 kts 220°
2026-05-07 04:03 43.28499 -71.05845 37774 ft 392 kts 220°
2026-05-07 04:03 43.23763 -71.09529 37781 ft 391 kts 220°
2026-05-07 04:04 43.19042 -71.13195 37780 ft 391 kts 220°
2026-05-07 04:04 43.14290 -71.16878 37780 ft 392 kts 220°
2026-05-07 04:05 43.09571 -71.20527 37783 ft 392 kts 220°
2026-05-07 04:05 43.05126 -71.24654 37742 ft 378 kts 231°
2026-05-07 04:06 43.01393 -71.29645 37806 ft 375 kts 233°
2026-05-07 04:06 42.97680 -71.34610 37817 ft 375 kts 233°
2026-05-07 04:07 42.96137 -71.36664 37813 ft 376 kts 233°
2026-05-07 04:07 42.92399 -71.41626 37816 ft 376 kts 233°
2026-05-07 04:08 42.88636 -71.46608 37785 ft 376 kts 233°
2026-05-07 04:08 42.84889 -71.51556 37818 ft 374 kts 233°
2026-05-07 04:09 42.81165 -71.56467 37863 ft 374 kts 233°
2026-05-07 04:09 42.77410 -71.61410 37838 ft 374 kts 233°
2026-05-07 04:10 42.73690 -71.66299 37841 ft 373 kts 233°
2026-05-07 04:10 42.69966 -71.71182 37823 ft 371 kts 233°
2026-05-07 04:11 42.66254 -71.76044 37844 ft 370 kts 233°
2026-05-07 04:11 42.62566 -71.80866 37846 ft 369 kts 233°
2026-05-07 04:12 42.58866 -71.85695 37849 ft 369 kts 233°
2026-05-07 04:12 42.55161 -71.90522 37841 ft 367 kts 233°
2026-05-07 04:13 42.51467 -71.95327 37849 ft 368 kts 233°
2026-05-07 04:13 42.47794 -72.00095 37835 ft 368 kts 233°
2026-05-07 04:14 42.44092 -72.04893 37826 ft 367 kts 233°
2026-05-07 04:14 42.40409 -72.09658 37774 ft 367 kts 234°
2026-05-07 04:15 42.36730 -72.14406 37808 ft 364 kts 234°
2026-05-07 04:15 42.33065 -72.19130 37837 ft 362 kts 234°
2026-05-07 04:16 42.29435 -72.23806 37833 ft 362 kts 234°
2026-05-07 04:16 42.25786 -72.28499 37822 ft 362 kts 233°
2026-05-07 04:17 42.22136 -72.33179 37824 ft 359 kts 234°
2026-05-07 04:17 42.18507 -72.37827 37829 ft 359 kts 234°
2026-05-07 04:18 42.14900 -72.42440 37852 ft 358 kts 234°
2026-05-07 04:18 42.11275 -72.47069 37848 ft 358 kts 234°
2026-05-07 04:19 42.07653 -72.51686 37810 ft 358 kts 234°
2026-05-07 04:19 42.04036 -72.56289 37841 ft 357 kts 234°
2026-05-07 04:20 42.00449 -72.60847 37904 ft 357 kts 234°
2026-05-07 04:20 41.96825 -72.65446 37864 ft 356 kts 234°
2026-05-07 04:21 41.91509 -72.72341 37859 ft 353 kts 236°
2026-05-07 04:21 41.88088 -72.77057 37845 ft 351 kts 237°
2026-05-07 04:22 41.84694 -72.81729 37849 ft 351 kts 237°
2026-05-07 04:22 41.81278 -72.86403 37877 ft 350 kts 237°
2026-05-07 04:23 41.77853 -72.91070 37872 ft 351 kts 237°
2026-05-07 04:23 41.74424 -72.95731 37923 ft 351 kts 236°
2026-05-07 04:24 41.71017 -73.00352 37856 ft 350 kts 237°
2026-05-07 04:24 41.67602 -73.04977 37868 ft 348 kts 237°
2026-05-07 04:25 41.64209 -73.09567 37875 ft 348 kts 237°
2026-05-07 04:25 41.60803 -73.14168 37882 ft 348 kts 237°
2026-05-07 04:26 41.57389 -73.18773 37882 ft 348 kts 237°
2026-05-07 04:26 41.53991 -73.23347 37878 ft 348 kts 237°
2026-05-07 04:27 41.50587 -73.27925 37884 ft 347 kts 237°
2026-05-07 04:27 41.47753 -73.31729 37885 ft 347 kts 237°
2026-05-07 04:28 41.44378 -73.36329 37893 ft 346 kts 237°
2026-05-07 04:28 41.41016 -73.40927 37896 ft 346 kts 237°
2026-05-07 04:29 41.37677 -73.45483 37878 ft 345 kts 237°
2026-05-07 04:29 41.34316 -73.50061 37885 ft 345 kts 237°
2026-05-07 04:30 41.30951 -73.54635 37887 ft 345 kts 237°
2026-05-07 04:30 41.27680 -73.59238 37886 ft 339 kts 241°
2026-05-07 04:31 41.24723 -73.64128 37879 ft 338 kts 242°
2026-05-07 04:31 41.21797 -73.68990 37847 ft 338 kts 242°
2026-05-07 04:32 41.18851 -73.73855 37863 ft 338 kts 242°
2026-05-07 04:32 41.15896 -73.78716 37863 ft 338 kts 242°
2026-05-07 04:33 41.12978 -73.83563 37851 ft 338 kts 242°
2026-05-07 04:33 41.10063 -73.88459 37865 ft 337 kts 242°
2026-05-07 04:34 41.07143 -73.93352 37866 ft 337 kts 242°
2026-05-07 04:34 41.04242 -73.98200 37871 ft 337 kts 242°
2026-05-07 04:35 41.01322 -74.03072 37884 ft 337 kts 242°
2026-05-07 04:35 40.98420 -74.07906 37898 ft 337 kts 242°
2026-05-07 04:36 40.95504 -74.12756 37893 ft 337 kts 242°
2026-05-07 04:36 40.92754 -74.17321 37895 ft 336 kts 242°
2026-05-07 04:37 40.91523 -74.19363 37897 ft 336 kts 242°
2026-05-07 04:37 40.88623 -74.24167 37850 ft 335 kts 242°
2026-05-07 04:38 40.85710 -74.28988 37888 ft 335 kts 242°
2026-05-07 04:38 40.82787 -74.33819 37897 ft 335 kts 242°
2026-05-07 04:39 40.79865 -74.38637 37898 ft 336 kts 242°
2026-05-07 04:39 40.76957 -74.43438 37882 ft 336 kts 242°
2026-05-07 04:40 40.74042 -74.48262 37882 ft 335 kts 242°
2026-05-07 04:40 40.71154 -74.53036 37860 ft 334 kts 243°
2026-05-07 04:41 40.68252 -74.57826 37883 ft 333 kts 243°
2026-05-07 04:41 40.65372 -74.62573 37883 ft 333 kts 243°
2026-05-07 04:42 40.62471 -74.67349 37891 ft 333 kts 243°
2026-05-07 04:42 40.59580 -74.72096 37892 ft 333 kts 242°
2026-05-07 04:43 40.56543 -74.76764 37893 ft 338 kts 239°
2026-05-07 04:43 40.53327 -74.81297 37882 ft 338 kts 239°
2026-05-07 04:44 40.50111 -74.85827 37887 ft 338 kts 239°
2026-05-07 04:44 40.46925 -74.90334 37894 ft 338 kts 239°
2026-05-07 04:45 40.43717 -74.94868 37844 ft 339 kts 239°
2026-05-07 04:45 40.40519 -74.99379 37890 ft 339 kts 239°
2026-05-07 04:46 40.37299 -75.03902 37904 ft 338 kts 239°
2026-05-07 04:46 40.34083 -75.08410 37906 ft 337 kts 239°
2026-05-07 04:47 40.30897 -75.12873 37906 ft 336 kts 239°
2026-05-07 04:47 40.27700 -75.17347 37909 ft 335 kts 239°
2026-05-07 04:48 40.24528 -75.21780 37907 ft 335 kts 239°
2026-05-07 04:48 40.21336 -75.26234 37909 ft 334 kts 239°
2026-05-07 04:49 40.18147 -75.30678 37871 ft 334 kts 239°
2026-05-07 04:49 40.14974 -75.35094 37906 ft 334 kts 239°
2026-05-07 04:50 40.11778 -75.39531 37908 ft 335 kts 239°
2026-05-07 04:50 40.08585 -75.43953 37920 ft 336 kts 239°
2026-05-07 04:51 40.05373 -75.48392 37922 ft 335 kts 239°
2026-05-07 04:51 40.02172 -75.52808 37927 ft 333 kts 239°
2026-05-07 04:52 39.99001 -75.57188 37883 ft 336 kts 239°
2026-05-07 04:52 39.97384 -75.59421 38008 ft 339 kts 239°
2026-05-07 04:52 39.95762 -75.61652 38310 ft 338 kts 239°
2026-05-07 04:53 39.94154 -75.63859 38681 ft 334 kts 239°
2026-05-07 04:53 39.92551 -75.66061 38842 ft 335 kts 239°
2026-05-07 04:53 39.89538 -75.70668 39038 ft 333 kts 243°
2026-05-07 04:54 39.88101 -75.72995 39204 ft 334 kts 243°
2026-05-07 04:54 39.86637 -75.75357 39327 ft 335 kts 242°
2026-05-07 04:54 39.85153 -75.77737 39458 ft 337 kts 242°
2026-05-07 04:54 39.83671 -75.80105 39647 ft 336 kts 242°
2026-05-07 04:55 39.82214 -75.82427 39865 ft 335 kts 242°
2026-05-07 04:55 39.80732 -75.84792 39894 ft 338 kts 242°
2026-05-07 04:55 39.77743 -75.89560 39906 ft 339 kts 242°
2026-05-07 04:56 39.74782 -75.94269 39899 ft 336 kts 242°
2026-05-07 04:56 39.71820 -75.98979 39908 ft 335 kts 242°
2026-05-07 04:57 39.68872 -76.03661 39905 ft 334 kts 242°
2026-05-07 04:57 39.65949 -76.08299 39908 ft 334 kts 242°
2026-05-07 04:58 39.62997 -76.12975 39888 ft 334 kts 242°
2026-05-07 04:58 39.60050 -76.17632 39915 ft 335 kts 241°
2026-05-07 04:59 39.57025 -76.22285 39909 ft 338 kts 240°
2026-05-07 04:59 39.53974 -76.26938 39910 ft 338 kts 240°
2026-05-07 05:00 39.50945 -76.31563 39909 ft 339 kts 240°
2026-05-07 05:00 39.47889 -76.36227 39907 ft 339 kts 240°
2026-05-07 05:01 39.44708 -76.40791 39866 ft 344 kts 238°
2026-05-07 05:01 39.41325 -76.45209 39902 ft 345 kts 237°
2026-05-07 05:02 39.37931 -76.49615 39908 ft 346 kts 237°
2026-05-07 05:02 39.36091 -76.51645 39947 ft 358 kts 230°
2026-05-07 05:02 39.33967 -76.53440 39940 ft 371 kts 223°
2026-05-07 05:03 39.29371 -76.56570 39942 ft 374 kts 223°
2026-05-07 05:03 39.24751 -76.59693 39892 ft 374 kts 223°
2026-05-07 05:04 39.20168 -76.62801 39912 ft 375 kts 223°
2026-05-07 05:04 39.15541 -76.65945 39923 ft 375 kts 223°
2026-05-07 05:05 39.10947 -76.69067 39964 ft 375 kts 223°
2026-05-07 05:05 39.06320 -76.72208 39970 ft 376 kts 223°
2026-05-07 05:06 39.01690 -76.75346 39953 ft 375 kts 223°
2026-05-07 05:06 38.97865 -76.77934 39955 ft 375 kts 223°
2026-05-07 05:07 38.95459 -76.79561 39954 ft 375 kts 223°
2026-05-07 05:07 38.90836 -76.82686 39932 ft 375 kts 223°
2026-05-07 05:08 38.86234 -76.85790 39936 ft 375 kts 223°
2026-05-07 05:08 38.81604 -76.88908 39907 ft 375 kts 223°
2026-05-07 05:09 38.76985 -76.92014 39920 ft 374 kts 223°
2026-05-07 05:09 38.72383 -76.95105 39920 ft 375 kts 223°
2026-05-07 05:10 38.67756 -76.98208 39913 ft 375 kts 223°
2026-05-07 05:10 38.63155 -77.01290 39920 ft 375 kts 223°
2026-05-07 05:11 38.58525 -77.04384 39916 ft 375 kts 223°
2026-05-07 05:11 38.53921 -77.07459 39920 ft 375 kts 223°
2026-05-07 05:12 38.49280 -77.10555 39929 ft 376 kts 223°
2026-05-07 05:12 38.44635 -77.13647 39932 ft 377 kts 223°
2026-05-07 05:13 38.40758 -77.16224 39887 ft 378 kts 223°
2026-05-07 05:13 38.35333 -77.19824 39918 ft 378 kts 223°
2026-05-07 05:14 38.31451 -77.22398 39912 ft 378 kts 223°
2026-05-07 05:14 38.26772 -77.25494 39921 ft 379 kts 222°
2026-05-07 05:15 38.22077 -77.28597 39912 ft 378 kts 222°
2026-05-07 05:15 38.17435 -77.31658 39904 ft 377 kts 222°
2026-05-07 05:16 38.12773 -77.34731 39905 ft 376 kts 222°
2026-05-07 05:16 38.08142 -77.37779 39913 ft 376 kts 222°
2026-05-07 05:17 38.03490 -77.40838 39900 ft 376 kts 222°
2026-05-07 05:17 37.98830 -77.43896 39900 ft 376 kts 222°
2026-05-07 05:18 37.94206 -77.46926 39896 ft 376 kts 222°
2026-05-07 05:18 37.89544 -77.49977 39909 ft 376 kts 223°
2026-05-07 05:19 37.84926 -77.52995 39908 ft 376 kts 222°
2026-05-07 05:19 37.80269 -77.56034 39913 ft 376 kts 222°
2026-05-07 05:20 37.75629 -77.59058 39911 ft 377 kts 222°
2026-05-07 05:20 37.70965 -77.62090 39913 ft 376 kts 222°
2026-05-07 05:21 37.64003 -77.66611 39903 ft 374 kts 222°
2026-05-07 05:22 37.59391 -77.69600 39911 ft 374 kts 222°
2026-05-07 05:22 37.54764 -77.72596 39867 ft 373 kts 222°
2026-05-07 05:23 37.50146 -77.75582 39907 ft 373 kts 222°
2026-05-07 05:23 37.45548 -77.78553 39915 ft 374 kts 222°
2026-05-07 05:24 37.40904 -77.81550 39906 ft 375 kts 222°
2026-05-07 05:24 37.36234 -77.84558 39906 ft 376 kts 222°
2026-05-07 05:25 37.31594 -77.87540 39879 ft 377 kts 222°
2026-05-07 05:25 37.26903 -77.90551 39900 ft 378 kts 222°
2026-05-07 05:26 37.22237 -77.93543 39922 ft 379 kts 222°
2026-05-07 05:26 37.17525 -77.96560 39918 ft 380 kts 221°
2026-05-07 05:27 37.12814 -77.99573 39586 ft 381 kts 221°
2026-05-07 05:27 37.10456 -78.01073 39120 ft 377 kts 222°
2026-05-07 05:27 37.08132 -78.02541 38767 ft 371 kts 220°
2026-05-07 05:27 37.05574 -78.03532 38267 ft 402 kts 203°
2026-05-07 05:28 37.02746 -78.03645 37828 ft 415 kts 197°
2026-05-07 05:28 36.99915 -78.03802 37386 ft 398 kts 202°
2026-05-07 05:28 36.97174 -78.04098 36969 ft 391 kts 202°
2026-05-07 05:28 36.94526 -78.04473 36581 ft 381 kts 205°
2026-05-07 05:29 36.91916 -78.04926 36182 ft 375 kts 205°
2026-05-07 05:29 36.89342 -78.05397 35774 ft 371 kts 206°
2026-05-07 05:29 36.86829 -78.05865 35369 ft 368 kts 206°
2026-05-07 05:29 36.84288 -78.06352 34995 ft 365 kts 206°
2026-05-07 05:30 36.81783 -78.06842 34595 ft 362 kts 206°
2026-05-07 05:30 36.79302 -78.07335 34214 ft 359 kts 206°
2026-05-07 05:30 36.76839 -78.07835 33809 ft 357 kts 206°
2026-05-07 05:30 36.74432 -78.08342 33405 ft 354 kts 206°
2026-05-07 05:31 36.72016 -78.08873 33025 ft 350 kts 206°
2026-05-07 05:31 36.69633 -78.09418 32648 ft 346 kts 206°
2026-05-07 05:31 36.67277 -78.09977 32266 ft 343 kts 206°
2026-05-07 05:31 36.64950 -78.10553 31921 ft 339 kts 206°
2026-05-07 05:32 36.62634 -78.11146 31524 ft 337 kts 206°
2026-05-07 05:32 36.60347 -78.11749 31185 ft 335 kts 206°
2026-05-07 05:32 36.58100 -78.12369 30831 ft 334 kts 206°
2026-05-07 05:32 36.55823 -78.13034 30446 ft 338 kts 206°
2026-05-07 05:33 36.53495 -78.13764 30108 ft 349 kts 206°
2026-05-07 05:33 36.51152 -78.14547 29684 ft 350 kts 207°
2026-05-07 05:33 36.48915 -78.15600 29287 ft 338 kts 213°
2026-05-07 05:33 36.46786 -78.16782 28880 ft 332 kts 214°
2026-05-07 05:34 36.44702 -78.17981 28489 ft 328 kts 215°
2026-05-07 05:34 36.42664 -78.19162 28095 ft 324 kts 215°
2026-05-07 05:34 36.40622 -78.20350 27710 ft 321 kts 215°
2026-05-07 05:34 36.38606 -78.21514 27338 ft 317 kts 215°
2026-05-07 05:35 36.36605 -78.22660 26954 ft 315 kts 215°
2026-05-07 05:35 36.34643 -78.23783 26586 ft 312 kts 215°
2026-05-07 05:35 36.32674 -78.24910 26221 ft 310 kts 215°
2026-05-07 05:35 36.30727 -78.26025 25859 ft 307 kts 215°
2026-05-07 05:36 36.28792 -78.27137 25499 ft 304 kts 215°
2026-05-07 05:36 36.26873 -78.28244 25140 ft 302 kts 215°
2026-05-07 05:36 36.24978 -78.29342 24781 ft 300 kts 215°
2026-05-07 05:36 36.23472 -78.30220 24514 ft 300 kts 215°
2026-05-07 05:37 36.22734 -78.30653 24379 ft 301 kts 215°
2026-05-07 05:37 36.20829 -78.31781 24031 ft 305 kts 215°
2026-05-07 05:37 36.18893 -78.32946 23672 ft 312 kts 215°
2026-05-07 05:38 36.16925 -78.34150 23208 ft 318 kts 215°
2026-05-07 05:38 36.14943 -78.35366 22810 ft 315 kts 215°
2026-05-07 05:38 36.13015 -78.36543 22444 ft 311 kts 215°
2026-05-07 05:38 36.11079 -78.37721 22024 ft 308 kts 215°
2026-05-07 05:39 36.09149 -78.38897 21594 ft 307 kts 215°
2026-05-07 05:39 36.07236 -78.40063 21171 ft 305 kts 215°
2026-05-07 05:39 36.05337 -78.41220 20769 ft 303 kts 215°
2026-05-07 05:39 36.03473 -78.42355 20387 ft 301 kts 215°
2026-05-07 05:40 36.01596 -78.43499 19991 ft 299 kts 215°
2026-05-07 05:40 35.99731 -78.44635 19596 ft 298 kts 215°
2026-05-07 05:40 35.97878 -78.45762 19212 ft 296 kts 215°
2026-05-07 05:40 35.96031 -78.46886 18854 ft 294 kts 215°
2026-05-07 05:41 35.94197 -78.48000 18474 ft 293 kts 216°
2026-05-07 05:41 35.92393 -78.49097 18118 ft 291 kts 216°
2026-05-07 05:41 35.90588 -78.50193 17708 ft 288 kts 216°
2026-05-07 05:41 35.88787 -78.51287 17300 ft 286 kts 215°
2026-05-07 05:42 35.86999 -78.52372 16891 ft 285 kts 215°
2026-05-07 05:42 35.85245 -78.53436 16498 ft 283 kts 214°
2026-05-07 05:42 35.83487 -78.54502 16126 ft 280 kts 214°
2026-05-07 05:42 35.81737 -78.55562 15756 ft 278 kts 214°
2026-05-07 05:43 35.79998 -78.56616 15370 ft 277 kts 213°
2026-05-07 05:43 35.78291 -78.57650 14999 ft 276 kts 213°
2026-05-07 05:43 35.76575 -78.58689 14667 ft 273 kts 212°
2026-05-07 05:43 35.74866 -78.59722 14303 ft 271 kts 212°
2026-05-07 05:44 35.73175 -78.60745 13926 ft 271 kts 211°
2026-05-07 05:44 35.71487 -78.61765 13567 ft 268 kts 211°
2026-05-07 05:44 35.69813 -78.62776 13121 ft 267 kts 211°
2026-05-07 05:44 35.68159 -78.63774 12732 ft 266 kts 211°
2026-05-07 05:45 35.66504 -78.64772 12384 ft 264 kts 211°
2026-05-07 05:45 35.64861 -78.65762 12030 ft 261 kts 211°
2026-05-07 05:45 35.63234 -78.66742 11687 ft 259 kts 211°
2026-05-07 05:45 35.61623 -78.67713 11329 ft 257 kts 212°
2026-05-07 05:46 35.60014 -78.68682 10946 ft 256 kts 212°
2026-05-07 05:46 35.58434 -78.69634 10588 ft 255 kts 211°
2026-05-07 05:46 35.56846 -78.70590 10262 ft 253 kts 212°
2026-05-07 05:46 35.55270 -78.71537 9910 ft 251 kts 212°
2026-05-07 05:47 35.53700 -78.72481 9531 ft 250 kts 211°
2026-05-07 05:47 35.52144 -78.73416 9179 ft 247 kts 211°
2026-05-07 05:47 35.50603 -78.74341 8828 ft 245 kts 211°
2026-05-07 05:47 35.49073 -78.75261 8458 ft 244 kts 211°
2026-05-07 05:48 35.47545 -78.76178 8121 ft 242 kts 211°
2026-05-07 05:48 35.46040 -78.77080 7812 ft 239 kts 211°
2026-05-07 05:48 35.44572 -78.77961 7493 ft 237 kts 211°
2026-05-07 05:48 35.43086 -78.78852 7124 ft 237 kts 211°
2026-05-07 05:49 35.41599 -78.79744 6778 ft 236 kts 211°
2026-05-07 05:49 35.40128 -78.80625 6471 ft 234 kts 211°
2026-05-07 05:49 35.38688 -78.81487 6168 ft 231 kts 211°
2026-05-07 05:49 35.37252 -78.82346 5815 ft 229 kts 211°
2026-05-07 05:50 35.35820 -78.83203 5480 ft 228 kts 211°
2026-05-07 05:50 35.34396 -78.84054 5184 ft 224 kts 210°
2026-05-07 05:50 35.33031 -78.84869 5011 ft 217 kts 210°
2026-05-07 05:50 35.31727 -78.85685 4935 ft 203 kts 218°
2026-05-07 05:51 35.30699 -78.86796 4799 ft 190 kts 225°
2026-05-07 05:51 35.29739 -78.87817 4715 ft 174 kts 222°
2026-05-07 05:51 35.28874 -78.88750 4616 ft 159 kts 225°
2026-05-07 05:51 35.28065 -78.89614 4465 ft 146 kts 223°
2026-05-07 05:52 35.27337 -78.90387 4197 ft 140 kts 224°
2026-05-07 05:52 35.26613 -78.91168 3875 ft 135 kts 223°
2026-05-07 05:52 35.25976 -78.91852 3747 ft 111 kts 224°
2026-05-07 05:52 35.25416 -78.92458 3376 ft 108 kts 224°
2026-05-07 05:53 35.24856 -78.93064 2977 ft 106 kts 225°
2026-05-07 05:53 35.24309 -78.93656 2561 ft 106 kts 225°
2026-05-07 05:53 35.23751 -78.94258 2145 ft 108 kts 225°
2026-05-07 05:53 35.23192 -78.94866 1856 ft 109 kts 225°
2026-05-07 05:54 35.22628 -78.95482 1546 ft 109 kts 224°
2026-05-07 05:54 35.22071 -78.96079 1289 ft 105 kts 224°
2026-05-07 05:54 35.21468 -78.96719 1078 ft 127 kts 222°
2026-05-07 05:54 35.20797 -78.97461 1004 ft 133 kts 222°
2026-05-07 05:55 35.20103 -78.98215 825 ft 134 kts 220°
2026-05-07 05:55 35.19389 -78.98968 656 ft 137 kts 221°
2026-05-07 05:55 35.18673 -78.99764 463 ft 141 kts 223°
2026-05-07 05:55 35.17924 -79.00556 267 ft 142 kts 221°
2026-05-07 05:56 35.17228 -79.01299 205 ft 117 kts 221°
2026-05-07 05:56 35.16730 -79.01835 202 ft 74 kts 222°
2026-05-07 05:56 35.16442 -79.02145 203 ft 30 kts 221°
2026-05-07 05:56 35.16365 -79.02315 210 ft 21 kts 308°
2026-05-07 05:57 35.16487 -79.02413 202 ft 20 kts 326°
2026-05-07 05:57 35.16610 -79.02444 207 ft 20 kts 38°
2026-05-07 05:57 35.16712 -79.02335 202 ft 19 kts 41°
2026-05-07 05:57 35.16811 -79.02229 202 ft 19 kts 41°
2026-05-07 05:58 35.16906 -79.02126 205 ft 18 kts 41°
2026-05-07 05:58 35.16998 -79.02027 208 ft 17 kts 41°
2026-05-07 05:58 35.17085 -79.01934 208 ft 16 kts 41°
2026-05-07 05:58 35.17168 -79.01844 210 ft 16 kts 41°
2026-05-07 05:59 35.17253 -79.01753 208 ft 17 kts 41°
2026-05-07 05:59 35.17347 -79.01651 202 ft 19 kts 41°
2026-05-07 05:59 35.17438 -79.01552 205 ft 16 kts 41°
2026-05-07 05:59 35.17530 -79.01511 202 ft 16 kts 317°
2026-05-07 06:00 35.17533 -79.01592 202 ft 15 kts 240°
2026-05-07 06:00 35.17478 -79.01740 210 ft 15 kts 223°
2026-05-07 06:00 35.17432 -79.01741 209 ft 6 kts 101°
2026-05-07 06:00 35.17434 -79.01693 202 ft 6 kts 85°
2026-05-07 06:01 35.17436 -79.01663 202 ft 4 kts 85°
2026-05-07 06:01 35.17436 -79.01662 202 ft 0 kts 85°